TimeAST,TemperatureF,Dew PointF,Humidity,Sea Level PressureIn,VisibilityMPH,Wind Direction,Wind SpeedMPH,Gust SpeedMPH,PrecipitationIn,Events,Conditions,WindDirDegrees,DateUTC
12:00 AM,78.8,75.2,89,29.86,-9999.0,ENE,10.4,-,N/A,,Unknown,60,2013-11-28 04:00:00
1:00 AM,78.8,73.4,83,29.86,-9999.0,NE,12.7,-,N/A,,Unknown,50,2013-11-28 05:00:00
2:00 AM,78.8,75.2,89,29.83,-9999.0,NE,10.4,-,N/A,,Unknown,50,2013-11-28 06:00:00
3:00 AM,78.8,73.4,83,29.83,-9999.0,NE,11.5,-,N/A,,Unknown,50,2013-11-28 07:00:00
4:00 AM,78.8,73.4,83,29.83,-9999.0,NE,11.5,-,N/A,,Unknown,50,2013-11-28 08:00:00
5:00 AM,78.8,73.4,83,29.83,-9999.0,NE,10.4,-,N/A,,Unknown,50,2013-11-28 09:00:00
6:00 AM,78.8,73.4,83,29.83,-9999.0,NE,11.5,-,N/A,,Unknown,50,2013-11-28 10:00:00
7:00 AM,78.8,73.4,83,29.86,-9999.0,NE,11.5,-,N/A,,Unknown,50,2013-11-28 11:00:00
8:00 AM,82.4,75.2,79,29.89,6.2,NE,12.7,-,N/A,,Scattered Clouds,50,2013-11-28 12:00:00
9:00 AM,84.2,75.2,74,29.89,6.2,NE,16.1,-,N/A,,Scattered Clouds,50,2013-11-28 13:00:00
10:00 AM,84.2,77.0,79,29.92,6.2,NE,16.1,-,N/A,,Scattered Clouds,50,2013-11-28 14:00:00
11:00 AM,86.0,75.2,70,29.92,6.2,ENE,16.1,-,N/A,,Scattered Clouds,60,2013-11-28 15:00:00
12:00 PM,86.0,75.2,70,29.89,6.2,ENE,19.6,-,N/A,,Scattered Clouds,60,2013-11-28 16:00:00
1:00 PM,86.0,75.2,70,29.86,6.2,ENE,20.7,-,N/A,,Scattered Clouds,60,2013-11-28 17:00:00
2:00 PM,86.0,75.2,70,29.83,6.2,ENE,21.9,-,N/A,,Mostly Cloudy,60,2013-11-28 18:00:00
3:00 PM,84.2,75.2,74,29.80,-9999.0,ENE,19.6,-,N/A,,Unknown,60,2013-11-28 19:00:00
4:00 PM,84.2,73.4,70,29.80,-9999.0,ENE,20.7,-,N/A,,Unknown,60,2013-11-28 20:00:00
5:00 PM,84.2,73.4,70,29.80,6.2,ENE,17.3,-,N/A,,Scattered Clouds,70,2013-11-28 21:00:00
6:00 PM,82.4,73.4,74,29.83,6.2,ENE,15.0,-,N/A,,Scattered Clouds,70,2013-11-28 22:00:00
7:00 PM,80.6,73.4,79,29.83,-9999.0,ENE,12.7,-,N/A,,Unknown,60,2013-11-28 23:00:00
8:00 PM,80.6,73.4,79,29.86,-9999.0,ENE,11.5,-,N/A,,Unknown,60,2013-11-29 00:00:00
11:00 PM,80.6,71.6,74,29.89,-9999.0,ENE,11.5,-,N/A,,Unknown,70,2013-11-29 03:00:00